Home   Weather   Patras   Past weeks

Flag for Greece Past Weather in Patras, Greece — Yesterday and Last 2 Weeks

Now
52 °F

Passing clouds.


Feels Like: 49 °F
Forecast: 40 / 53 °F
Wind: 7 mph from South

Location: Araxos Airport

Current Time: Jan 18, 2017 at 10:42:38 pm

Latest Report: Jan 18, 2017 at 9:50 pm


Visibility: N/A

Pressure: 30.01 "Hg

Humidity: 88%

Dew Point: 48 °F

Location of PatrasLocation

Past Weather in Patras — Graph

°F

Patras Temperature Yesterday

Maximum temperature yesterday: 48 °F (at 3:50 am)
Minimum temperature yesterday: 43 °F (at 11:50 pm)
Average temperature yesterday: 46 °F

High & Low Weather Summary for the Past Weeks

 TemperatureHumidityPressure
High59 °F (Jan 5, 11:50 am)100% (Jan 3, 8:50 pm)30.24 "Hg (Jan 3, 8:50 pm)
Low30 °F (Jan 7, 10:50 pm)44% (Jan 15, 12:50 pm)29.53 "Hg (Jan 5, 8:50 pm)
Average45 °F85%29.89 "Hg
* Reported Jan 3 8:50 pm — Jan 18 8:50 pm, Patras, Weather by CustomWeather, © 2017

Note: Actual official high and low records may vary slightly from our data, if they occured in-between our weather recording intervals... More about our weather records

Advertising

Patras Weather History for the Previous 24 Hours

Scroll right to see more
 ConditionsComfort  
Time TempWeatherWind HumidityBarometerVisibility
8:50 pm
Wed, Jan 18
50 °FPartly cloudy.7 mph94%30.01 "HgN/A
8:20 pm50 °FRain. Partly cloudy.8 mph94%29.98 "HgN/A
7:50 pm50 °FThunderstorms. Partly cloudy.6 mph94%29.98 "HgN/A
7:20 pm50 °FLight rain. Partly cloudy.12 mph88%29.95 "HgN/A
6:50 pm50 °FPartly cloudy.7 mph94%29.95 "HgN/A
6:20 pm48 °FLight rain. Mostly cloudy.8 mph100%29.95 "HgN/A
5:50 pm48 °FRain. Mostly cloudy.5 mph100%29.98 "Hg2 mi
4:50 pm48 °FHeavy rain. Mostly cloudy.7 mph100%29.92 "Hg1 mi
4:20 pm48 °FHeavy rain. More clouds than sun.14 mph100%29.92 "Hg2 mi
3:50 pm48 °FRain. More clouds than sun.8 mph100%29.95 "Hg2 mi
3:20 pm48 °FRain. More clouds than sun.10 mph100%29.95 "Hg2 mi
2:50 pm48 °FLight rain. More clouds than sun.No wind100%29.98 "Hg2 mi
2:20 pm50 °FLight rain. More clouds than sun.No wind88%29.98 "Hg3 mi
1:50 pm50 °FLight rain. More clouds than sun.10 mph88%29.95 "Hg4 mi
12:50 pm50 °FLight rain. More clouds than sun.7 mph88%29.98 "HgN/A
12:20 pm50 °FLight rain. More clouds than sun.7 mph82%30.01 "Hg4 mi
11:50 am50 °FLight rain. More clouds than sun.10 mph82%29.98 "Hg5 mi
11:20 am50 °FBroken clouds.9 mph82%29.98 "HgN/A
10:50 am50 °FBroken clouds.9 mph76%30.01 "HgN/A
10:20 am48 °FBroken clouds.9 mph87%29.98 "HgN/A
9:50 am50 °FLight rain. Broken clouds.8 mph76%29.98 "HgN/A
9:20 am48 °FLight rain. Broken clouds.10 mph87%29.98 "HgN/A
8:50 am48 °FBroken clouds.9 mph87%29.95 "HgN/A
8:20 am48 °FBroken clouds.9 mph87%29.95 "HgN/A
7:50 am48 °FLight rain. Broken clouds.9 mph87%29.95 "HgN/A
7:20 am48 °FLight rain. Partly cloudy.12 mph87%29.95 "HgN/A
6:50 am48 °FPartly cloudy.12 mph87%29.95 "HgN/A
6:20 am48 °FPartly cloudy.8 mph87%29.95 "HgN/A
5:50 am48 °FLight rain. Mostly cloudy.9 mph87%29.92 "HgN/A
5:20 am48 °FLight rain. Mostly cloudy.6 mph87%29.92 "HgN/A
4:50 am46 °FLight rain. Mostly cloudy.No wind93%29.92 "HgN/A
3:50 am48 °FPartly cloudy.3 mph82%29.92 "HgN/A
2:50 am48 °FPartly cloudy.No wind82%29.92 "HgN/A
1:50 am45 °FPartly cloudy.No wind93%29.92 "HgN/A
11:50 pm
Tue, Jan 17
43 °FPartly cloudy.No wind100%29.92 "HgN/A
10:50 pm45 °FPartly cloudy.No wind93%29.89 "HgN/A
Weather by CustomWeather, © 2017

See weather overviewHow to use our weather pages